Time,TemperatureF,DewpointF,PressureIn,WindDirection,WindDirectionDegrees,WindSpeedMPH,WindSpeedGustMPH,Humidity,HourlyPrecipIn,Conditions,Clouds,dailyrainin,SoftwareType,DateUTC
2013-03-11 00:02:00,43.4,42.5,0.00,WSW,240,0.7,1.5,97,0.00,,,0.00,WUHU216CR1000,2013-03-11 07:02:00,
2013-03-11 00:07:00,43.4,42.5,0.00,WSW,240,0.7,1.5,97,0.00,,,0.00,WUHU216CR1000,2013-03-11 07:07:00,
2013-03-11 00:17:00,43.5,42.6,0.00,SW,226,0.2,1.0,97,0.00,,,0.00,WUHU216CR1000,2013-03-11 07:17:00,
2013-03-11 00:18:00,43.5,42.6,0.00,SW,226,0.2,1.0,97,0.00,,,0.00,WUHU216CR1000,2013-03-11 07:18:00,
2013-03-11 00:22:00,43.5,42.6,0.00,SW,226,0.2,1.0,97,0.00,,,0.00,WUHU216CR1000,2013-03-11 07:22:00,
2013-03-11 00:27:00,43.5,42.6,0.00,SW,226,0.2,1.0,97,0.00,,,0.00,WUHU216CR1000,2013-03-11 07:27:00,
2013-03-11 00:32:00,42.9,42.0,0.00,SW,236,0.4,1.4,97,0.00,,,0.00,WUHU216CR1000,2013-03-11 07:32:00,
2013-03-11 00:37:00,42.9,42.0,0.00,SW,236,0.4,1.4,97,0.00,,,0.00,WUHU216CR1000,2013-03-11 07:37:00,
2013-03-11 00:42:00,42.9,42.0,0.00,SW,236,0.4,1.4,97,0.00,,,0.00,WUHU216CR1000,2013-03-11 07:42:00,
2013-03-11 00:47:00,42.5,41.5,0.00,SW,222,1.7,2.6,96,0.00,,,0.00,WUHU216CR1000,2013-03-11 07:47:00,
2013-03-11 00:52:00,42.5,41.5,0.00,SW,222,1.7,2.6,96,0.00,,,0.00,WUHU216CR1000,2013-03-11 07:52:00,
2013-03-11 00:57:00,42.5,41.5,0.00,SW,222,1.7,2.6,96,0.00,,,0.00,WUHU216CR1000,2013-03-11 07:57:00,
2013-03-11 01:02:00,42.3,41.2,0.00,SW,227,2.0,3.3,96,0.00,,,0.00,WUHU216CR1000,2013-03-11 08:02:00,
2013-03-11 01:07:00,42.3,41.2,0.00,SW,227,2.0,3.3,96,0.00,,,0.00,WUHU216CR1000,2013-03-11 08:07:00,
2013-03-11 01:17:00,41.7,40.7,0.00,WSW,241,1.0,2.2,96,0.00,,,0.00,WUHU216CR1000,2013-03-11 08:17:00,
2013-03-11 01:22:00,41.7,40.7,0.00,WSW,241,1.0,2.2,96,0.00,,,0.00,WUHU216CR1000,2013-03-11 08:22:00,
2013-03-11 01:27:00,41.7,40.7,0.00,WSW,241,1.0,2.2,96,0.00,,,0.00,WUHU216CR1000,2013-03-11 08:27:00,
2013-03-11 01:32:00,41.1,40.1,0.00,WSW,254,0.2,1.2,96,0.00,,,0.00,WUHU216CR1000,2013-03-11 08:32:00,
2013-03-11 01:37:00,41.1,40.1,0.00,WSW,254,0.2,1.2,96,0.00,,,0.00,WUHU216CR1000,2013-03-11 08:37:00,
2013-03-11 01:42:00,41.1,40.1,0.00,WSW,254,0.2,1.2,96,0.00,,,0.00,WUHU216CR1000,2013-03-11 08:42:00,
2013-03-11 01:47:00,40.6,39.6,0.00,SSW,194,0.3,1.5,96,0.00,,,0.00,WUHU216CR1000,2013-03-11 08:47:00,
2013-03-11 01:52:00,40.6,39.6,0.00,SSW,194,0.3,1.5,96,0.00,,,0.00,WUHU216CR1000,2013-03-11 08:52:00,
2013-03-11 01:57:00,40.6,39.6,0.00,SSW,194,0.3,1.5,96,0.00,,,0.00,WUHU216CR1000,2013-03-11 08:57:00,
2013-03-11 02:02:00,41.0,40.2,0.00,SW,217,0.7,1.3,97,0.00,,,0.00,WUHU216CR1000,2013-03-11 09:02:00,
2013-03-11 02:07:00,41.0,40.2,0.00,SW,217,0.7,1.3,97,0.00,,,0.00,WUHU216CR1000,2013-03-11 09:07:00,
2013-03-11 02:12:00,41.0,40.2,0.00,SW,217,0.7,1.3,97,0.00,,,0.00,WUHU216CR1000,2013-03-11 09:12:00,
2013-03-11 02:17:00,41.0,40.1,0.00,SW,217,1.3,2.3,97,0.00,,,0.00,WUHU216CR1000,2013-03-11 09:17:00,
2013-03-11 02:22:00,41.0,40.1,0.00,SW,217,1.3,2.3,97,0.00,,,0.00,WUHU216CR1000,2013-03-11 09:22:00,
2013-03-11 02:27:00,41.0,40.1,0.00,SW,217,1.3,2.3,97,0.00,,,0.00,WUHU216CR1000,2013-03-11 09:27:00,
2013-03-11 02:32:00,40.8,39.9,0.00,WSW,249,0.6,1.9,97,0.00,,,0.00,WUHU216CR1000,2013-03-11 09:32:00,
2013-03-11 02:33:00,40.8,39.9,0.00,WSW,249,0.6,1.9,97,0.00,,,0.00,WUHU216CR1000,2013-03-11 09:33:00,
2013-03-11 02:37:00,40.8,39.9,0.00,WSW,249,0.6,1.9,97,0.00,,,0.00,WUHU216CR1000,2013-03-11 09:37:00,
2013-03-11 02:42:00,40.8,39.9,0.00,WSW,249,0.6,1.9,97,0.00,,,0.00,WUHU216CR1000,2013-03-11 09:42:00,
2013-03-11 02:47:00,40.5,39.7,0.00,SW,228,1.0,1.9,97,0.00,,,0.00,WUHU216CR1000,2013-03-11 09:47:00,
2013-03-11 02:52:00,40.5,39.7,0.00,SW,228,1.0,1.9,97,0.00,,,0.00,WUHU216CR1000,2013-03-11 09:52:00,
2013-03-11 02:57:00,40.5,39.7,0.00,SW,228,1.0,1.9,97,0.00,,,0.00,WUHU216CR1000,2013-03-11 09:57:00,
2013-03-11 03:02:00,40.1,39.4,0.00,SW,226,1.8,3.0,97,0.00,,,0.00,WUHU216CR1000,2013-03-11 10:02:00,
2013-03-11 03:07:00,40.1,39.4,0.00,SW,226,1.8,3.0,97,0.00,,,0.00,WUHU216CR1000,2013-03-11 10:07:00,